GFSNGP_sfc_thetae_159.txt.gz
Theta_e
300 301 302 302 301 303 303 304 303 305 307 311 313 320 322 322 327 322 326 327 331 334 337 337 339 341 342 343 346 349 347 351 352 356 355 355 354 354 354 354 355 358 359 358
300 302 302 300 303 303 303 303 305 305 306 315 317 322 322 324 325 322 325 328 331 335 337 337 339 342 344 346 346 349 349 348 349 352 354 353 355 355 355 354 355 357 357 358
298 300 300 298 303 305 306 309 307 305 311 319 319 320 322 323 325 326 324 333 335 337 339 339 340 342 344 345 348 347 349 353 353 351 351 353 354 355 354 354 355 355 355 356
299 300 293 302 309 310 310 313 315 315 317 319 318 322 323 324 324 322 329 329 334 338 338 339 340 342 345 347 346 347 347 350 354 352 351 353 353 353 355 355 354 355 355 356
298 297 298 302 310 312 310 308 317 316 318 318 321 321 319 325 324 325 326 329 335 338 338 339 340 342 344 345 346 346 346 348 351 351 352 353 352 352 354 354 354 354 355 356
298 295 293 304 310 316 316 304 319 319 319 319 320 312 313 325 330 329 332 336 335 336 337 338 340 343 340 339 341 343 345 347 350 352 351 349 351 353 354 355 355 354 353 352
299 298 300 307 312 316 303 304 318 321 321 321 315 316 320 329 329 332 334 334 335 335 335 336 339 339 338 338 338 343 345 344 346 345 349 351 351 350 349 348 344 340 335 335
299 298 295 310 314 308 315 317 318 323 323 321 324 322 322 323 325 329 332 333 333 333 334 338 338 337 337 336 342 345 343 339 338 341 344 344 344 343 341 335 332 331 330 329
305 304 312 316 318 322 320 321 321 324 324 323 320 321 323 324 327 330 333 332 333 333 334 337 339 338 336 340 342 344 341 337 335 335 337 342 339 335 333 331 328 327 327 322
305 310 310 313 317 319 319 321 324 325 322 324 322 322 323 326 328 329 331 331 332 331 330 333 337 336 337 342 343 340 336 333 334 333 329 329 329 334 332 329 327 326 324 321
308 309 312 314 317 320 319 319 320 323 324 323 323 324 326 327 328 330 330 331 331 331 331 333 334 334 337 338 337 334 329 326 325 325 319 310 305 304 317 314 323 326 324 322
306 317 318 319 320 322 320 321 323 324 324 326 326 325 327 327 329 330 330 329 329 330 331 333 332 333 333 333 330 326 324 323 322 319 316 316 315 310 302 302 301 301 303 311
314 315 318 318 321 323 321 323 325 323 323 323 324 326 325 326 328 325 328 328 328 327 328 330 330 330 330 330 329 329 324 322 320 319 318 318 318 316 313 307 300 297 298 301
316 317 315 320 320 324 324 325 322 324 323 323 322 323 324 325 327 328 328 329 329 330 331 329 328 328 330 330 330 329 324 315 325 325 324 325 327 322 320 317 312 307 299 299
316 317 316 322 324 325 326 325 323 322 322 321 323 323 325 324 326 327 329 329 330 331 329 328 327 326 329 330 330 328 326 326 326 326 327 323 322 326 325 321 316 309 308 304
317 316 316 320 322 325 325 324 323 323 322 321 322 323 324 327 328 329 328 325 324 325 326 328 326 327 328 327 327 327 326 321 322 321 319 319 316 314 313 311 311 312 314 314
314 313 315 318 322 324 324 326 326 324 321 320 322 323 325 326 325 326 324 326 324 321 322 320 325 329 328 328 326 325 323 324 322 321 321 322 321 319 317 316 317 319 319 317
320 321 320 319 320 323 324 326 325 323 320 321 323 325 325 325 325 325 326 325 325 323 323 320 317 318 323 327 327 326 325 325 326 322 321 321 319 318 317 317 318 318 318 315
320 320 318 318 320 322 323 325 325 323 321 322 323 324 325 326 325 325 325 324 322 321 320 321 320 318 316 323 324 323 323 322 320 319 319 314 317 316 316 316 316 316 317 316
316 317 318 319 319 321 323 325 325 322 321 322 324 324 325 326 324 323 324 322 322 322 322 320 320 318 319 319 320 325 323 322 322 321 319 320 319 319 319 311 318 318 318 316
316 318 319 320 320 322 324 325 324 322 321 324 324 325 326 325 324 323 322 319 324 321 320 320 320 319 317 318 316 317 318 319 319 319 319 318 315 315 314 314 314 314 314 316
323 322 322 322 322 323 325 324 324 323 322 324 326 326 325 324 324 323 323 321 321 313 320 319 320 319 319 318 317 317 317 318 317 317 315 315 315 315 315 315 315 315 315 315
324 323 325 324 323 324 325 323 322 323 322 323 325 325 324 324 323 321 319 324 323 317 322 323 318 315 314 321 320 319 319 318 316 316 317 317 316 315 315 314 314 315 315 315
324 324 322 322 322 322 321 321 322 323 325 325 326 327 325 322 323 326 327 316 314 315 323 322 319 310 312 320 319 318 317 316 316 316 315 307 314 313 312 311 310 311 311 309
323 324 325 325 324 323 323 320 320 321 323 324 326 326 327 326 324 325 326 325 312 317 324 312 311 308 319 319 318 317 316 315 314 314 313 312 311 311 311 311 310 310 311 311
322 321 323 324 324 323 321 320 318 320 321 321 323 324 326 327 327 326 328 322 325 318 324 323 321 316 318 317 317 315 315 313 312 313 311 312 312 311 311 311 311 312 313 313
319 310 319 320 321 324 323 320 320 319 320 322 322 325 326 327 326 324 321 326 326 326 326 324 320 314 318 317 315 314 314 314 309 313 313 313 313 313 313 313 313 313 314 314

GFSNGP_sfc_thetae_162.txt.gz
Theta_e
309 307 307 306 305 308 308 309 306 308 309 313 318 321 327 329 330 329 331 333 337 339 341 342 341 342 345 349 351 354 354 355 357 359 359 360 359 359 359 359 359 360 359 360
306 306 306 304 306 307 307 308 308 309 309 322 322 327 328 327 328 328 329 332 334 337 340 343 340 343 344 346 345 352 352 352 356 359 361 360 360 360 360 360 359 358 358 359
303 306 305 302 306 306 307 309 309 306 312 323 323 324 327 328 328 328 329 331 335 339 342 345 343 345 347 349 352 353 352 354 355 357 358 358 359 360 360 360 360 359 357 358
303 306 296 307 313 310 309 311 313 313 314 322 324 326 327 329 329 328 330 331 335 341 343 344 345 345 347 349 352 352 353 354 356 357 356 357 358 358 360 361 360 360 359 359
302 301 305 306 309 311 310 310 316 317 319 324 325 325 323 326 328 328 330 332 336 342 342 343 343 344 346 346 346 350 350 352 356 357 358 358 358 358 359 359 360 360 360 361
305 300 298 307 311 317 316 305 316 320 322 322 324 314 320 329 328 328 330 333 335 338 339 340 342 344 343 341 343 343 351 352 355 357 356 355 356 360 360 359 359 358 360 360
305 302 305 311 312 319 303 308 318 320 320 322 319 320 324 328 328 332 334 336 338 338 337 339 342 341 339 342 345 347 350 351 353 354 355 356 357 362 359 359 362 362 361 358
306 303 300 315 314 309 314 319 318 320 322 325 325 323 323 325 326 328 330 336 338 337 337 339 342 342 337 341 347 349 350 350 345 346 347 350 352 351 352 356 354 352 348 344
309 308 318 319 318 321 320 319 320 322 324 326 322 322 324 322 323 326 330 334 337 337 337 340 342 342 337 341 350 347 346 346 340 339 338 340 342 342 343 341 339 337 338 335
312 315 317 318 320 322 324 321 323 323 326 326 321 321 321 321 324 327 331 334 337 336 335 336 340 339 342 341 348 348 343 338 335 333 331 327 325 334 339 336 335 333 328 325
312 316 317 319 321 323 324 324 324 326 326 323 321 321 321 324 327 328 331 334 337 335 335 335 337 338 339 343 345 344 334 333 333 330 322 315 308 307 320 315 322 332 328 325
308 318 318 319 323 324 324 324 325 325 324 324 324 323 327 326 328 329 331 333 334 334 334 334 334 338 335 339 339 331 329 330 329 325 321 318 315 311 302 302 302 301 301 313
317 320 324 325 325 325 325 325 325 326 326 325 327 328 327 327 328 326 331 331 332 332 331 331 337 336 333 333 333 328 327 327 325 322 322 320 317 317 313 309 301 298 300 301
322 321 321 323 321 326 326 326 325 327 327 328 328 328 327 327 328 329 329 331 333 333 331 334 335 331 331 331 330 329 330 317 327 328 326 323 323 321 321 317 313 311 300 301
322 323 323 325 326 326 327 328 326 326 326 327 328 327 328 326 330 332 332 331 333 334 334 333 330 329 332 332 333 330 331 331 330 332 333 329 331 328 321 317 313 310 312 307
320 322 322 322 325 327 327 327 326 326 327 327 326 326 327 330 333 333 331 331 328 325 329 331 331 329 330 331 334 332 331 324 326 330 329 327 330 329 326 324 320 320 319 317
318 319 320 320 323 326 326 327 327 327 329 327 327 328 329 330 330 331 328 329 328 325 325 323 323 331 330 329 328 328 329 326 323 329 327 323 323 320 316 320 320 319 319 317
323 323 325 323 323 324 326 327 328 329 329 328 328 330 330 329 329 328 326 328 328 326 324 325 324 324 326 328 327 325 324 323 324 323 324 325 326 325 322 322 320 319 320 318
321 321 323 323 323 323 324 326 329 331 330 328 329 329 330 330 330 329 329 328 327 324 326 326 323 327 326 326 326 325 325 324 323 324 322 316 319 319 320 320 320 320 318 318
320 321 322 323 323 323 324 326 330 330 329 328 329 330 329 330 331 330 329 327 327 326 328 323 326 324 321 322 323 322 321 320 319 318 318 318 318 318 318 312 318 318 319 319
320 321 321 322 323 325 324 328 330 329 329 329 329 330 330 331 329 329 327 322 326 325 319 319 325 322 321 321 320 323 321 320 319 320 320 321 321 321 321 320 320 321 321 321
321 319 320 322 325 326 327 329 331 331 329 329 330 331 330 328 328 326 329 326 326 314 320 321 322 321 320 320 320 319 321 321 321 322 322 321 321 320 320 320 320 320 321 322
328 328 327 326 325 325 328 330 330 331 330 330 330 331 329 327 327 323 321 328 326 317 324 323 318 316 316 320 321 320 319 319 319 320 321 322 322 322 321 321 320 320 320 320
327 329 329 330 329 330 329 331 330 330 331 331 331 332 329 326 327 328 327 317 314 316 324 323 319 312 311 325 325 323 323 321 321 322 322 313 323 322 321 320 319 318 317 314
328 328 328 328 328 329 330 330 328 329 329 329 330 332 331 329 326 327 327 326 313 318 323 313 312 310 323 325 325 324 324 323 321 321 322 321 320 319 317 316 315 313 312 312
323 322 323 326 325 326 328 328 325 325 325 325 327 329 329 328 327 327 327 321 326 319 325 326 326 324 325 326 326 325 323 321 319 320 319 319 317 316 315 314 313 312 314 314
323 311 320 323 325 325 324 324 327 326 324 326 326 328 328 328 327 324 320 326 325 324 325 326 326 322 326 325 324 323 322 321 314 319 319 317 316 316 315 314 314 315 315 315

GFSNGP_sfc_thetae_165.txt.gz
Theta_e
312 312 310 309 308 309 308 310 307 309 311 316 320 322 326 328 331 331 332 335 340 340 343 344 346 350 352 353 355 355 354 356 362 368 366 367 367 367 365 365 364 367 366 364
310 311 309 307 308 309 309 310 311 311 311 320 325 325 326 329 329 330 332 333 336 340 344 343 344 345 346 348 349 355 355 356 363 364 365 365 367 365 367 365 366 367 364 363
306 310 309 304 308 309 309 311 311 307 314 324 323 323 326 329 330 330 332 332 335 338 343 346 345 348 345 349 351 350 352 355 358 364 363 367 367 367 366 364 366 364 364 364
306 308 299 309 314 312 310 311 313 313 314 319 323 327 330 332 331 331 332 332 335 339 341 343 345 346 349 349 348 352 353 350 357 361 362 366 366 366 368 367 367 365 365 365
304 304 308 309 312 311 310 310 316 315 318 322 324 327 326 330 331 331 333 333 335 338 341 342 341 343 347 348 350 351 352 355 357 357 361 364 363 363 365 365 366 365 365 366
307 302 300 310 314 317 316 307 318 319 319 322 324 317 321 328 328 328 328 330 331 333 336 339 342 344 344 345 346 347 349 353 356 359 359 357 362 363 364 364 364 362 364 365
306 303 308 314 316 318 305 311 318 319 321 324 321 324 329 330 329 330 331 331 333 334 333 336 341 343 344 343 343 348 351 353 356 355 355 356 361 365 363 362 362 363 362 365
307 304 302 318 316 310 317 321 319 321 322 323 327 325 325 325 325 326 327 328 333 337 336 337 340 342 343 340 345 349 352 352 352 353 351 351 355 358 357 357 356 358 360 361
310 309 321 321 319 321 321 320 319 321 322 325 325 323 323 325 323 324 326 329 332 334 335 339 342 343 341 342 346 349 351 349 350 346 346 344 342 345 344 345 340 344 349 345
315 316 317 320 321 322 322 321 323 323 324 326 323 323 323 323 324 326 327 329 331 334 334 336 341 342 344 344 348 347 345 347 345 342 332 327 328 324 336 340 341 334 333 336
315 318 319 320 321 321 322 323 322 324 325 325 324 323 324 324 326 327 328 329 331 333 334 336 339 339 340 345 347 347 345 342 335 331 331 325 312 308 314 318 317 336 337 336
310 320 320 320 322 323 322 323 324 324 325 325 324 323 325 327 327 329 329 331 332 334 334 335 338 337 340 344 344 344 339 334 332 331 329 324 319 315 303 301 300 302 304 320
322 325 322 323 324 323 323 325 325 325 326 325 326 326 327 328 330 327 331 332 334 333 334 335 335 335 341 338 336 335 331 330 333 329 327 322 321 319 315 309 302 298 300 303
325 323 321 322 320 325 325 326 324 326 327 328 329 328 327 329 330 331 331 332 334 335 335 334 335 336 338 334 333 330 330 320 333 329 324 322 324 321 319 316 313 311 301 304
323 324 322 326 326 325 326 326 325 325 326 328 330 329 328 327 329 331 333 334 334 335 333 335 335 337 335 334 331 329 327 332 331 330 327 327 328 324 318 315 314 312 313 307
322 323 323 323 324 325 325 325 326 325 327 328 329 329 329 330 332 333 335 333 331 329 329 331 334 337 337 333 332 331 332 326 330 329 330 333 331 327 323 320 319 318 318 316
317 318 320 321 323 325 325 327 327 326 328 328 329 330 330 330 331 331 332 332 330 329 328 329 327 334 337 332 330 330 331 331 326 334 333 334 333 331 330 328 324 323 323 323
324 324 323 324 323 325 326 326 326 326 329 330 331 331 330 330 330 331 330 331 332 330 329 328 328 329 333 331 328 329 328 327 331 328 327 327 327 326 320 320 321 320 320 318
323 323 323 325 326 326 327 328 328 329 332 332 331 330 331 332 331 331 330 328 328 328 327 329 326 325 329 329 327 327 324 325 323 325 325 320 323 323 323 321 320 320 319 319
322 323 323 325 326 326 326 326 329 330 332 332 332 331 331 332 332 331 330 328 328 326 328 327 325 321 320 323 324 323 325 323 319 318 318 317 320 320 320 314 318 319 318 320
320 322 322 324 326 325 326 329 329 331 332 332 331 332 333 333 332 331 328 324 328 328 323 321 322 320 323 322 323 321 320 319 317 318 317 318 318 318 318 319 320 320 319 320
321 321 322 323 325 326 326 326 329 333 332 332 332 334 334 332 331 330 331 323 324 316 321 322 322 321 321 320 324 324 320 320 319 319 319 321 321 320 321 321 321 321 322 323
328 325 324 324 324 325 327 328 331 332 332 332 333 334 333 330 328 324 324 329 325 319 321 322 320 318 317 320 321 322 323 322 321 322 322 323 321 321 321 321 322 322 323 323
330 331 331 332 329 326 327 329 327 332 336 336 334 336 333 329 328 328 328 318 315 317 322 321 319 314 314 320 324 325 324 321 322 321 321 313 326 324 323 323 322 323 322 318
327 327 328 330 330 329 332 333 332 332 334 334 335 336 334 331 329 328 328 327 314 319 324 314 313 313 321 326 325 324 324 324 322 323 323 323 323 324 323 322 320 319 318 316
324 322 324 327 326 328 330 330 329 330 330 330 331 333 332 331 330 328 328 322 327 320 325 326 324 322 324 326 325 325 325 324 323 323 322 324 323 322 320 318 316 315 315 314
324 313 322 323 324 326 325 325 326 327 326 329 329 330 330 329 328 325 321 325 325 324 324 326 325 322 323 325 325 325 324 324 317 323 323 323 321 319 318 317 315 315 315 316

GFSNGP_sfc_thetae_168.txt.gz
Theta_e
311 312 313 310 309 309 308 309 305 309 311 315 321 321 324 327 329 330 333 336 338 340 343 345 351 353 355 354 359 357 351 357 360 358 364 360 361 364 361 362 362 361 361 360
308 311 311 308 309 309 308 308 308 310 311 322 323 329 329 327 328 329 331 334 338 341 345 344 345 350 353 350 354 346 347 336 354 350 356 359 360 363 362 361 360 362 360 360
304 310 307 305 308 308 309 310 310 307 316 323 322 321 324 332 329 330 332 333 336 340 343 346 344 346 346 349 351 353 347 348 354 357 356 357 359 362 361 359 359 360 359 359
305 308 299 310 315 313 311 311 312 312 314 319 323 326 327 330 330 331 334 334 338 340 344 343 346 346 350 349 353 351 349 349 357 359 360 360 360 361 362 362 360 360 359 359
304 303 308 310 313 311 310 309 314 313 315 320 323 326 326 329 332 333 334 335 338 341 343 346 345 346 353 352 353 352 349 347 349 353 356 359 358 359 361 359 359 360 361 360
308 302 299 310 314 317 316 305 317 318 318 319 323 315 320 329 330 331 333 333 332 336 339 343 346 347 348 350 350 349 350 353 354 357 357 355 357 359 360 359 357 356 358 360
305 304 307 315 317 318 305 309 319 319 320 324 322 325 330 329 329 330 330 331 334 333 335 341 342 344 346 347 346 349 352 354 355 358 355 356 358 360 360 359 357 356 355 357
307 305 302 318 316 310 321 322 320 320 322 327 329 328 327 327 327 327 326 327 329 336 338 341 343 347 345 346 349 350 350 351 353 355 353 353 354 356 357 357 355 354 354 354
310 309 325 320 320 322 321 322 320 322 323 330 326 325 324 325 325 324 326 329 330 334 338 341 346 348 344 349 347 347 348 349 350 349 347 346 345 346 348 347 346 342 346 348
314 319 319 320 322 323 322 322 323 322 323 325 325 324 324 325 325 327 328 329 330 333 334 340 346 342 348 344 345 343 347 348 347 342 339 336 331 327 332 338 342 340 338 335
313 318 321 320 321 321 322 323 323 324 324 325 325 323 325 326 328 328 331 331 334 335 336 338 344 344 343 342 347 341 343 346 341 339 337 328 314 310 315 321 313 327 338 335
308 319 323 316 323 322 322 323 323 323 324 327 325 326 328 328 330 330 332 333 334 337 337 340 339 340 340 343 345 341 343 341 336 334 333 330 325 317 303 301 300 299 304 316
318 326 327 326 326 323 324 324 324 324 326 326 326 326 329 331 334 328 332 332 334 335 334 338 340 337 341 344 341 338 339 337 332 329 328 325 323 320 315 309 302 298 299 301
324 325 322 322 321 324 323 325 324 326 326 330 330 330 329 328 330 330 330 332 334 335 335 335 337 336 340 339 337 334 332 320 329 328 327 324 322 319 317 314 310 309 302 302
323 324 323 325 324 323 325 325 324 324 325 328 333 332 328 326 328 330 334 333 333 334 334 334 334 337 339 336 333 332 329 329 330 328 328 323 322 320 317 315 313 312 312 307
321 322 322 322 323 324 325 324 324 324 328 329 330 330 330 330 331 332 334 333 331 329 330 330 329 335 339 335 332 330 329 325 326 329 327 326 322 320 319 318 317 316 315 314
318 318 321 321 322 323 323 325 327 329 329 330 332 333 332 330 331 332 332 332 331 330 330 329 328 332 335 336 333 331 331 330 327 329 333 330 325 322 323 322 320 318 316 315
322 324 324 323 323 323 325 326 328 329 329 332 334 334 333 333 332 334 332 332 331 330 330 330 329 329 332 334 331 329 329 329 330 331 329 330 330 326 324 324 324 322 320 318
323 324 325 325 325 326 325 327 323 327 332 335 335 334 335 335 335 333 332 330 329 330 329 329 323 325 328 331 328 327 327 325 324 327 325 321 324 322 319 318 320 321 321 321
321 324 325 328 326 327 327 329 330 330 327 329 335 335 335 335 335 332 334 329 329 328 328 324 324 320 321 327 326 324 323 322 323 321 320 320 320 320 319 313 319 319 319 320
321 322 323 324 326 326 327 330 327 328 328 328 336 336 337 337 334 334 330 325 328 327 326 322 322 321 321 319 320 320 318 318 319 319 317 316 318 317 318 319 320 322 322 321
321 321 322 324 326 327 327 329 333 335 334 334 336 338 337 336 335 332 334 328 326 317 323 322 321 320 320 320 318 318 317 317 316 317 318 319 319 317 317 318 319 320 322 322
323 323 324 324 326 330 330 328 330 334 336 337 336 338 336 332 330 327 322 325 325 319 323 321 318 317 317 324 321 321 320 320 320 318 319 320 318 320 319 320 320 320 322 325
330 330 326 326 328 329 331 333 330 335 338 339 338 340 337 331 332 332 328 318 315 316 321 321 317 315 314 321 323 324 323 323 323 322 323 311 322 322 323 323 323 324 321 320
328 329 331 329 330 325 333 335 332 333 336 337 338 339 339 335 330 329 328 325 313 317 323 315 315 314 321 322 323 326 321 321 321 321 320 321 322 323 322 323 322 322 320 321
327 322 323 328 320 320 324 329 326 327 327 330 332 334 334 335 331 326 328 322 323 318 322 322 322 320 321 323 327 326 327 326 319 318 321 320 322 324 324 322 319 320 320 317
324 311 321 322 323 324 324 324 327 327 325 326 328 332 333 331 327 327 321 324 324 324 325 325 323 320 322 323 325 327 326 327 319 326 327 326 325 323 322 320 320 321 318 317

GFSNGP_sfc_thetae_171.txt.gz
Theta_e
305 309 310 308 308 308 300 301 299 303 306 313 314 315 323 326 326 330 331 330 330 333 334 335 342 344 340 340 337 338 338 337 343 343 347 350 350 351 350 350 351 351 351 352
302 309 308 307 309 309 304 303 301 307 308 316 315 320 319 325 327 328 329 332 335 338 337 336 337 339 344 342 341 341 340 342 340 337 336 337 343 348 350 350 350 351 350 350
295 307 307 300 307 307 307 305 303 302 309 316 318 318 318 324 325 326 329 332 332 336 338 337 337 338 337 338 344 341 338 339 338 336 334 334 334 337 346 348 349 349 351 351
299 302 293 306 313 312 309 308 308 314 317 319 319 320 324 323 325 328 329 333 334 335 340 339 339 339 341 342 343 342 339 338 337 331 332 339 343 339 347 349 349 349 350 352
297 297 301 308 311 311 305 304 309 307 319 322 322 322 319 325 327 329 328 328 332 335 335 334 335 344 342 341 341 342 341 339 339 334 336 342 344 346 348 349 349 350 350 351
300 296 294 306 312 315 312 300 312 312 313 318 319 309 314 325 328 328 327 327 327 331 332 330 331 332 334 336 336 337 339 341 344 344 343 346 344 346 349 350 350 351 350 350
301 298 303 313 314 314 300 303 314 314 319 320 316 317 320 323 323 324 323 324 324 324 323 327 332 333 331 335 334 337 339 341 343 345 347 348 347 348 347 347 347 347 347 349
300 298 296 316 313 305 310 311 315 319 324 321 322 322 322 323 323 323 320 322 324 324 326 328 331 332 331 334 338 339 337 338 341 342 345 345 342 343 343 345 344 343 344 345
304 303 312 317 313 319 319 314 312 322 325 325 323 322 323 320 317 319 321 321 323 323 325 329 330 332 329 335 337 336 335 336 338 339 339 337 333 331 333 338 337 335 333 336
304 310 312 314 316 319 319 317 317 323 323 323 320 320 319 318 320 320 322 321 322 322 322 326 335 337 336 335 336 334 332 333 335 336 335 329 327 323 327 329 330 334 334 333
306 311 315 315 317 317 319 321 318 319 324 323 321 320 320 320 321 322 323 324 324 324 324 325 332 333 333 332 334 332 331 333 334 334 333 316 307 306 310 315 310 321 329 333
306 314 314 315 323 323 319 320 321 320 322 323 322 320 322 321 322 323 322 322 321 326 328 327 330 330 330 331 332 330 329 333 335 334 331 323 314 308 303 301 299 298 299 308
314 321 319 319 324 321 321 321 322 323 321 321 324 325 324 325 323 322 323 324 326 326 325 328 329 328 330 331 333 329 328 331 330 326 327 324 322 316 314 307 302 298 297 300
315 318 318 320 317 320 321 323 321 324 324 324 325 325 326 323 322 323 323 325 327 328 328 328 328 329 332 332 331 331 329 319 329 326 324 321 320 317 315 312 309 307 301 300
315 316 321 321 320 320 323 322 320 321 323 323 325 324 325 323 323 325 327 326 327 327 325 325 325 326 331 330 328 330 328 329 329 326 324 319 318 316 314 312 311 310 311 307
313 315 320 319 317 320 321 321 319 320 324 323 323 324 324 326 327 328 328 328 323 320 323 321 322 326 331 330 329 328 328 325 325 324 321 319 318 317 316 316 315 315 315 315
312 314 316 317 320 319 320 321 322 323 325 325 325 326 325 325 327 326 326 326 324 323 322 320 321 325 326 333 327 329 325 328 325 324 321 320 319 319 318 317 316 316 316 316
319 320 321 320 320 321 320 321 324 324 324 328 327 326 325 326 324 327 326 326 325 324 323 323 319 320 323 327 327 330 329 328 328 327 324 320 320 319 319 318 317 315 312 311
320 320 320 321 324 322 324 324 325 327 326 326 324 325 328 328 329 326 325 325 324 322 323 323 322 319 318 324 329 328 327 326 328 326 326 320 322 323 322 320 319 317 315 314
320 322 324 325 326 326 324 325 325 322 322 324 322 319 322 328 328 328 326 322 322 320 319 320 317 319 320 325 328 326 324 324 322 321 322 321 320 319 317 313 318 318 317 316
319 320 321 324 325 326 325 325 323 321 322 320 318 318 321 328 329 327 323 320 320 321 318 319 317 318 318 320 320 319 319 322 320 319 318 317 317 317 315 315 315 316 316 316
322 319 320 323 323 324 325 325 325 324 324 320 319 319 321 328 328 325 325 323 320 317 317 316 315 318 318 319 317 317 317 317 316 317 317 317 316 316 315 314 314 315 314 314
320 321 322 321 322 325 324 326 327 327 322 322 323 328 329 329 326 320 319 321 320 317 318 316 316 317 317 317 319 319 317 316 316 316 316 316 315 315 314 314 314 314 314 314
328 328 325 324 325 324 324 323 328 329 330 331 332 332 331 328 325 326 321 317 315 315 318 316 315 314 314 314 313 316 317 318 319 319 319 311 317 316 314 316 316 317 317 314
326 321 323 323 322 321 321 321 324 329 332 330 331 334 333 332 328 324 322 321 312 315 318 314 314 313 313 316 318 316 316 317 318 319 319 318 315 317 317 317 316 315 315 315
322 322 322 321 319 321 321 323 321 324 325 324 324 323 324 325 326 322 321 318 317 316 318 318 317 315 316 317 318 321 319 320 319 316 317 317 316 317 317 314 314 314 312 310
323 311 321 319 318 321 323 321 318 321 324 326 320 320 321 323 324 323 319 320 318 317 319 319 319 316 316 316 317 319 321 319 315 318 318 318 318 319 316 313 312 310 310 312